| time (UTC) | temp F | wind direction | speed MPH | gust MPH | rain 1hr in | rain 24hr in | rain mn in | humidity % | barometer mb |
| 20260508080404 | 53 | 88 | 3.0 | 8.0 | 0.02 | 0.02 | 0.02 | 91 | 1015.4 |
| 20260508075904 | 53 | 99 | 5.0 | 12.0 | 0.01 | 0.01 | 0.01 | 90 | 1015.3 |
| 20260508074904 | 54 | 151 | 2.0 | 5.0 | 0.01 | 0.01 | 0.01 | 90 | 1015.3 |
| 20260508074404 | 53 | 106 | 3.0 | 8.0 | 0.01 | 0.01 | 0.01 | 90 | 1015.2 |
| 20260508073904 | 53 | 99 | 1.0 | 6.0 | 0.01 | 0.01 | 0.01 | 90 | 1015.2 |
| 20260508073404 | 53 | 59 | 3.0 | 6.0 | 0.00 | 0.00 | 0.00 | 89 | 1015.2 |
| 20260508072904 | 53 | 97 | 4.0 | 7.0 | 0.00 | 0.00 | 0.00 | 89 | 1014.7 |
| 20260508071904 | 53 | 67 | 3.0 | 8.0 | 0.00 | 0.00 | 0.00 | 88 | 1014.7 |
| 20260508071405 | 53 | 95 | 4.0 | 9.0 | 0.00 | 0.00 | 0.00 | 87 | 1014.7 |
| 20260508070905 | 54 | 102 | 5.0 | 8.0 | 0.00 | 0.00 | 0.00 | 87 | 1014.7 |
| 20260508070404 | 54 | 115 | 1.0 | 8.0 | 0.00 | 0.00 | 0.00 | 87 | 1014.7 |
| 20260508065904 | 54 | 129 | 1.0 | 8.0 | 0.00 | 0.00 | 0.00 | 87 | 1014.7 |
| 20260508065404 | 54 | 120 | 3.0 | 8.0 | 0.00 | 0.00 | 0.00 | 86 | 1014.7 |
| 20260508064904 | 54 | 77 | 3.0 | 7.0 | 0.00 | 0.00 | 0.00 | 86 | 1014.7 |
| 20260508063904 | 54 | 96 | 1.0 | 5.0 | 0.00 | 0.00 | 0.00 | 85 | 1014.7 |
| 20260508063404 | 54 | 79 | 2.0 | 6.0 | 0.00 | 0.00 | 0.00 | 85 | 1014.7 |
| 20260508062404 | 54 | 84 | 2.0 | 7.0 | 0.00 | 0.00 | 0.00 | 85 | 1014.7 |
| 20260508061904 | 54 | 88 | 2.0 | 6.0 | 0.00 | 0.00 | 0.00 | 86 | 1014.7 |
| 20260508061404 | 54 | 98 | 2.0 | 5.0 | 0.00 | 0.00 | 0.00 | 86 | 1014.7 |
| 20260508060404 | 54 | 57 | 0.0 | 3.0 | 0.00 | 0.00 | 0.00 | 87 | 1014.7 |
| 20260508055905 | 54 | 73 | 0.0 | 0.0 | 0.00 | 0.00 | 0.00 | 87 | 1014.7 |
| 20260508055404 | 54 | 46 | 1.0 | 3.0 | 0.00 | 0.00 | 0.00 | 87 | 1014.5 |
| 20260508054904 | 54 | 59 | 1.0 | 3.0 | 0.00 | 0.00 | 0.00 | 87 | 1014.5 |
| 20260508054404 | 53 | 69 | 2.0 | 3.0 | 0.00 | 0.00 | 0.00 | 87 | 1014.5 |
| 20260508053905 | 53 | 67 | 1.0 | 7.0 | 0.00 | 0.00 | 0.00 | 88 | 1014.5 |
| 20260508053404 | 53 | 71 | 3.0 | 6.0 | 0.00 | 0.00 | 0.00 | 88 | 1014.5 |
| 20260508052904 | 53 | 69 | 1.0 | 3.0 | 0.00 | 0.00 | 0.00 | 88 | 1014.5 |
| 20260508052404 | 53 | 78 | 1.0 | 3.0 | 0.00 | 0.00 | 0.00 | 88 | 1014.5 |
| 20260508051904 | 53 | 58 | 2.0 | 6.0 | 0.00 | 0.00 | 0.00 | 88 | 1014.5 |
| 20260508051404 | 53 | 70 | 2.0 | 5.0 | 0.00 | 0.00 | 0.00 | 88 | 1014.5 |
| 20260508050904 | 53 | 63 | 0.0 | 0.0 | 0.00 | 0.00 | 0.00 | 88 | 1014.5 |
| 20260508050404 | 53 | 67 | 0.0 | 0.0 | 0.00 | 0.00 | 0.00 | 88 | 1014.5 |
| 20260508045904 | 53 | 47 | 1.0 | 3.0 | 0.00 | 0.00 | 0.00 | 89 | 1014.4 |
| 20260508045404 | 53 | 75 | 0.0 | 3.0 | 0.00 | 0.00 | 0.00 | 89 | 1014.4 |
| 20260508044904 | 53 | 69 | 1.0 | 5.0 | 0.00 | 0.00 | 0.00 | 89 | 1014.2 |
| 20260508043404 | 53 | 61 | 1.0 | 3.0 | 0.00 | 0.00 | 0.00 | 90 | 1014.3 |
| 20260508042903 | 52 | 60 | 1.0 | 3.0 | 0.00 | 0.00 | 0.00 | 90 | 1014.3 |
| 20260508042404 | 52 | 73 | 1.0 | 3.0 | 0.00 | 0.00 | 0.00 | 90 | 1014.3 |
| 20260508041404 | 52 | 82 | 1.0 | 5.0 | 0.00 | 0.00 | 0.00 | 91 | 1014.2 |
| 20260508040904 | 52 | 102 | 0.0 | 3.0 | 0.00 | 0.00 | 0.00 | 91 | 1014.2 |
| 20260508040404 | 52 | 89 | 1.0 | 3.0 | 0.00 | 0.00 | 0.00 | 91 | 1014.2 |
| 20260508035404 | 52 | 64 | 2.0 | 3.0 | 0.00 | 0.00 | 0.00 | 91 | 1014.3 |
| 20260508034904 | 52 | 67 | 1.0 | 3.0 | 0.00 | 0.00 | 0.00 | 91 | 1014.3 |
| 20260508034403 | 52 | 77 | 1.0 | 2.0 | 0.00 | 0.00 | 0.00 | 91 | 1014.3 |
| 20260508033905 | 52 | 78 | 1.0 | 2.0 | 0.00 | 0.00 | 0.00 | 91 | 1014.3 |
| 20260508032904 | 52 | 71 | 0.0 | 0.0 | 0.00 | 0.00 | 0.00 | 91 | 1014.4 |
| 20260508032404 | 51 | 71 | 0.0 | 2.0 | 0.00 | 0.00 | 0.00 | 91 | 1014.4 |
| 20260508031904 | 51 | 73 | 0.0 | 1.0 | 0.00 | 0.00 | 0.00 | 91 | 1014.6 |
| 20260508031404 | 51 | 73 | 0.0 | 0.0 | 0.00 | 0.00 | 0.00 | 91 | 1014.6 |
| 20260508030904 | 51 | 73 | 0.0 | 0.0 | 0.00 | 0.00 | 0.00 | 91 | 1014.6 |
| 20260508030404 | 51 | 73 | 0.0 | 0.0 | 0.00 | 0.00 | 0.00 | 90 | 1014.6 |
| 20260508025904 | 51 | 73 | 0.0 | 0.0 | 0.00 | 0.00 | 0.00 | 90 | 1014.6 |
| 20260508025404 | 51 | 73 | 0.0 | 0.0 | 0.00 | 0.00 | 0.00 | 90 | 1014.6 |
| 20260508024904 | 51 | 73 | 0.0 | 0.0 | 0.00 | 0.00 | 0.00 | 90 | 1014.5 |
| 20260508024405 | 51 | 73 | 0.0 | 0.0 | 0.00 | 0.00 | 0.00 | 90 | 1014.5 |
| 20260508023405 | 52 | 73 | 0.0 | 0.0 | 0.00 | 0.00 | 0.00 | 90 | 1014.5 |
| 20260508022904 | 52 | 73 | 0.0 | 0.0 | 0.00 | 0.00 | 0.00 | 90 | 1014.5 |
| 20260508022404 | 52 | 73 | 0.0 | 2.0 | 0.00 | 0.00 | 0.00 | 90 | 1014.5 |
| 20260508021904 | 52 | 75 | 0.0 | 3.0 | 0.00 | 0.00 | 0.00 | 89 | 1014.5 |
| 20260508021404 | 51 | 61 | 0.0 | 0.0 | 0.00 | 0.00 | 0.00 | 89 | 1014.5 |
| 20260508020905 | 51 | 61 | 0.0 | 3.0 | 0.00 | 0.00 | 0.00 | 89 | 1014.5 |
| 20260508020404 | 51 | 56 | 0.0 | 0.0 | 0.00 | 0.00 | 0.00 | 89 | 1014.5 |
| 20260508015904 | 51 | 54 | 0.0 | 0.0 | 0.00 | 0.00 | 0.00 | 89 | 1014.5 |
| 20260508015404 | 51 | 10 | 0.0 | 0.0 | 0.00 | 0.00 | 0.00 | 88 | 1014.5 |
| 20260508014904 | 51 | 10 | 0.0 | 0.0 | 0.00 | 0.00 | 0.00 | 88 | 1014.8 |
| 20260508014404 | 51 | 10 | 0.0 | 0.0 | 0.00 | 0.00 | 0.00 | 88 | 1014.8 |
| 20260508013904 | 51 | 94 | 0.0 | 0.0 | 0.00 | 0.00 | 0.00 | 88 | 1014.8 |
| 20260508013404 | 51 | 94 | 0.0 | 0.0 | 0.00 | 0.00 | 0.00 | 88 | 1014.8 |
| 20260508012404 | 51 | 94 | 0.0 | 0.0 | 0.00 | 0.00 | 0.00 | 88 | 1014.8 |
| 20260508011904 | 51 | 94 | 0.0 | 1.0 | 0.00 | 0.00 | 0.00 | 88 | 1014.8 |
| 20260508010904 | 51 | 86 | 1.0 | 3.0 | 0.00 | 0.00 | 0.00 | 88 | 1014.8 |
| 20260508010404 | 51 | 89 | 0.0 | 0.0 | 0.00 | 0.00 | 0.00 | 88 | 1014.9 |
| 20260508005904 | 51 | 89 | 0.0 | 0.0 | 0.00 | 0.00 | 0.00 | 88 | 1014.9 |
| 20260508005403 | 51 | 89 | 0.0 | 0.0 | 0.00 | 0.00 | 0.00 | 88 | 1014.9 |
| 20260508004904 | 51 | 92 | 0.0 | 0.0 | 0.00 | 0.00 | 0.00 | 88 | 1014.9 |
| 20260508004403 | 51 | 93 | 0.0 | 3.0 | 0.00 | 0.00 | 0.00 | 88 | 1014.9 |
| 20260508003904 | 51 | 71 | 1.0 | 2.0 | 0.00 | 0.00 | 0.00 | 88 | 1014.9 |
| 20260508003404 | 51 | 73 | 1.0 | 3.0 | 0.00 | 0.00 | 0.00 | 88 | 1014.9 |
| 20260508002404 | 50 | 63 | 0.0 | 0.0 | 0.00 | 0.00 | 0.00 | 89 | 1014.9 |
| 20260508001904 | 50 | 63 | 0.0 | 0.0 | 0.00 | 0.00 | 0.00 | 88 | 1014.9 |
| 20260508001404 | 50 | 54 | 0.0 | 3.0 | 0.00 | 0.00 | 0.00 | 89 | 1014.9 |
| 20260508000904 | 50 | 101 | 0.0 | 0.0 | 0.00 | 0.00 | 0.00 | 89 | 1014.9 |
| 20260508000405 | 50 | 102 | 0.0 | 2.0 | 0.00 | 0.00 | 0.00 | 89 | 1015.0 |
| 20260507235904 | 50 | 102 | 1.0 | 3.0 | 0.00 | 0.00 | 0.00 | 89 | 1015.0 |
| 20260507235404 | 50 | 66 | 0.0 | 0.0 | 0.00 | 0.00 | 0.00 | 89 | 1015.1 |
| 20260507234904 | 49 | 73 | 0.0 | 0.0 | 0.00 | 0.00 | 0.00 | 89 | 1015.1 |
| 20260507234404 | 49 | 77 | 0.0 | 0.0 | 0.00 | 0.00 | 0.00 | 89 | 1015.1 |
| 20260507233904 | 49 | 77 | 0.0 | 0.0 | 0.00 | 0.00 | 0.00 | 89 | 1015.1 |
| 20260507233404 | 49 | 77 | 0.0 | 0.0 | 0.00 | 0.00 | 0.00 | 90 | 1015.2 |
| 20260507232904 | 49 | 77 | 0.0 | 0.0 | 0.00 | 0.00 | 0.00 | 90 | 1015.2 |
| 20260507231904 | 48 | 99 | 0.0 | 2.0 | 0.00 | 0.00 | 0.00 | 89 | 1015.5 |
| 20260507231404 | 48 | 100 | 0.0 | 2.0 | 0.00 | 0.00 | 0.00 | 89 | 1015.5 |
| 20260507230904 | 48 | 100 | 0.0 | 3.0 | 0.00 | 0.00 | 0.00 | 89 | 1015.5 |
| 20260507230403 | 48 | 98 | 0.0 | 0.0 | 0.00 | 0.00 | 0.00 | 89 | 1015.5 |
| 20260507224904 | 48 | 98 | 0.0 | 0.0 | 0.00 | 0.00 | 0.00 | 89 | 1015.5 |
| 20260507224404 | 48 | 99 | 0.0 | 0.0 | 0.00 | 0.00 | 0.00 | 89 | 1015.5 |
| 20260507223904 | 48 | 99 | 0.0 | 0.0 | 0.00 | 0.00 | 0.00 | 89 | 1015.5 |
| 20260507223405 | 48 | 99 | 0.0 | 0.0 | 0.00 | 0.00 | 0.00 | 88 | 1015.5 |
| 20260507222903 | 48 | 99 | 0.0 | 0.0 | 0.00 | 0.00 | 0.00 | 88 | 1015.5 |
| 20260507221904 | 48 | 98 | 0.0 | 0.0 | 0.00 | 0.00 | 0.00 | 88 | 1015.5 |
| 20260507220904 | 48 | 95 | 0.0 | 0.0 | 0.00 | 0.00 | 0.00 | 88 | 1015.5 |
| 20260507220403 | 48 | 95 | 0.0 | 0.0 | 0.00 | 0.00 | 0.00 | 87 | 1015.5 |
| 20260507215904 | 49 | 96 | 0.0 | 1.0 | 0.00 | 0.00 | 0.00 | 87 | 1015.5 |
| 20260507215404 | 49 | 96 | 1.0 | 3.0 | 0.00 | 0.00 | 0.00 | 87 | 1015.5 |
| 20260507214903 | 49 | 89 | 0.0 | 0.0 | 0.00 | 0.00 | 0.00 | 87 | 1015.5 |
| 20260507213904 | 49 | 87 | 0.0 | 0.0 | 0.00 | 0.00 | 0.00 | 87 | 1015.5 |
| 20260507213404 | 49 | 87 | 0.0 | 0.0 | 0.00 | 0.00 | 0.00 | 87 | 1015.5 |
| 20260507212905 | 49 | 77 | 0.0 | 2.0 | 0.00 | 0.00 | 0.00 | 87 | 1015.5 |
| 20260507212404 | 50 | 71 | 0.0 | 0.0 | 0.00 | 0.00 | 0.00 | 87 | 1015.5 |
| 20260507211404 | 50 | 69 | 1.0 | 3.0 | 0.00 | 0.00 | 0.00 | 87 | 1015.5 |
| 20260507210404 | 50 | 68 | 1.0 | 3.0 | 0.00 | 0.00 | 0.00 | 88 | 1015.5 |
| 20260507205904 | 50 | 94 | 0.0 | 0.0 | 0.00 | 0.00 | 0.00 | 88 | 1015.4 |
| 20260507205404 | 49 | 94 | 0.0 | 0.0 | 0.00 | 0.00 | 0.00 | 88 | 1015.4 |
| 20260507204903 | 49 | 93 | 1.0 | 3.0 | 0.00 | 0.00 | 0.00 | 88 | 1015.4 |
| 20260507204404 | 49 | 87 | 0.0 | 2.0 | 0.00 | 0.00 | 0.00 | 88 | 1015.2 |
| 20260507203404 | 49 | 84 | 2.0 | 5.0 | 0.00 | 0.00 | 0.00 | 88 | 1015.3 |
| 20260507202403 | 48 | 91 | 0.0 | 0.0 | 0.00 | 0.00 | 0.00 | 87 | 1015.3 |
| 20260507201904 | 49 | 91 | 0.0 | 0.0 | 0.00 | 0.00 | 0.00 | 86 | 1015.0 |
| 20260507201404 | 49 | 89 | 0.0 | 0.0 | 0.00 | 0.00 | 0.00 | 86 | 1015.0 |
| 20260507200904 | 49 | 89 | 0.0 | 0.0 | 0.00 | 0.00 | 0.00 | 86 | 1015.0 |
| 20260507195903 | 50 | 90 | 0.0 | 0.0 | 0.00 | 0.00 | 0.00 | 85 | 1015.0 |
| 20260507195404 | 50 | 90 | 0.0 | 0.0 | 0.00 | 0.00 | 0.00 | 85 | 1015.0 |
| 20260507194904 | 51 | 90 | 0.0 | 0.0 | 0.00 | 0.00 | 0.00 | 84 | 1015.0 |
| 20260507194404 | 51 | 91 | 0.0 | 0.0 | 0.00 | 0.00 | 0.00 | 83 | 1014.9 |
| 20260507193405 | 52 | 91 | 0.0 | 0.0 | 0.00 | 0.00 | 0.00 | 82 | 1014.9 |
| 20260507192903 | 52 | 91 | 0.0 | 0.0 | 0.00 | 0.00 | 0.00 | 82 | 1014.8 |
| 20260507192404 | 52 | 91 | 0.0 | 0.0 | 0.00 | 0.00 | 0.00 | 81 | 1014.8 |
| 20260507191904 | 52 | 90 | 0.0 | 1.0 | 0.00 | 0.00 | 0.00 | 80 | 1014.8 |
| 20260507191404 | 53 | 89 | 1.0 | 3.0 | 0.00 | 0.00 | 0.00 | 79 | 1014.7 |
| 20260507190904 | 53 | 106 | 1.0 | 3.0 | 0.00 | 0.00 | 0.00 | 79 | 1014.7 |
| 20260507190404 | 53 | 121 | 2.0 | 3.0 | 0.00 | 0.00 | 0.00 | 78 | 1014.7 |
| 20260507185904 | 54 | 115 | 3.0 | 5.0 | 0.00 | 0.00 | 0.00 | 77 | 1014.7 |
| 20260507184904 | 54 | 115 | 1.0 | 5.0 | 0.00 | 0.00 | 0.00 | 75 | 1014.7 |
| 20260507184404 | 55 | 120 | 2.0 | 6.0 | 0.00 | 0.00 | 0.00 | 75 | 1014.4 |
| 20260507183904 | 55 | 164 | 3.0 | 8.0 | 0.00 | 0.00 | 0.00 | 74 | 1014.4 |
| 20260507183403 | 55 | 102 | 1.0 | 3.0 | 0.00 | 0.00 | 0.00 | 74 | 1014.4 |
| 20260507182404 | 55 | 95 | 3.0 | 5.0 | 0.00 | 0.00 | 0.00 | 73 | 1014.4 |
| 20260507181904 | 55 | 112 | 1.0 | 5.0 | 0.00 | 0.00 | 0.00 | 73 | 1014.4 |
| 20260507181404 | 55 | 97 | 3.0 | 5.0 | 0.00 | 0.00 | 0.00 | 72 | 1014.4 |
| 20260507180404 | 56 | 104 | 3.0 | 6.0 | 0.00 | 0.00 | 0.00 | 70 | 1014.4 |
| 20260507175904 | 56 | 68 | 3.0 | 6.0 | 0.00 | 0.00 | 0.00 | 69 | 1014.4 |
| 20260507175404 | 56 | 129 | 4.0 | 7.0 | 0.00 | 0.00 | 0.00 | 68 | 1014.4 |
| 20260507174904 | 56 | 119 | 5.0 | 8.0 | 0.00 | 0.00 | 0.00 | 68 | 1014.4 |
| 20260507174404 | 57 | 156 | 1.0 | 5.0 | 0.00 | 0.00 | 0.00 | 69 | 1014.4 |
| 20260507173904 | 57 | 105 | 3.0 | 9.0 | 0.00 | 0.00 | 0.00 | 68 | 1014.4 |
| 20260507173404 | 57 | 68 | 4.0 | 8.0 | 0.00 | 0.00 | 0.00 | 68 | 1014.4 |
| 20260507172904 | 57 | 122 | 4.0 | 8.0 | 0.00 | 0.00 | 0.00 | 67 | 1014.5 |
| 20260507172404 | 57 | 76 | 3.0 | 7.0 | 0.00 | 0.00 | 0.00 | 67 | 1014.5 |
| 20260507171404 | 57 | 74 | 4.0 | 8.0 | 0.00 | 0.00 | 0.00 | 66 | 1014.5 |
| 20260507170904 | 57 | 94 | 5.0 | 8.0 | 0.00 | 0.00 | 0.00 | 66 | 1014.5 |
| 20260507165904 | 58 | 167 | 2.0 | 8.0 | 0.00 | 0.00 | 0.00 | 68 | 1014.6 |
| 20260507165404 | 58 | 108 | 4.0 | 7.0 | 0.00 | 0.00 | 0.00 | 66 | 1014.6 |
| 20260507164404 | 58 | 107 | 3.0 | 8.0 | 0.00 | 0.00 | 0.00 | 64 | 1014.6 |
| 20260507163404 | 59 | 103 | 5.0 | 9.0 | 0.00 | 0.00 | 0.00 | 62 | 1014.6 |
| 20260507162904 | 58 | 98 | 3.0 | 8.0 | 0.00 | 0.00 | 0.00 | 62 | 1014.6 |
| 20260507162404 | 59 | 96 | 4.0 | 7.0 | 0.00 | 0.00 | 0.00 | 59 | 1014.6 |
| 20260507161904 | 59 | 73 | 2.0 | 8.0 | 0.00 | 0.00 | 0.00 | 61 | 1014.5 |
| 20260507161404 | 59 | 79 | 4.0 | 7.0 | 0.00 | 0.00 | 0.00 | 59 | 1014.5 |
| 20260507160904 | 59 | 118 | 3.0 | 9.0 | 0.00 | 0.00 | 0.00 | 60 | 1014.7 |
| 20260507160403 | 59 | 71 | 3.0 | 7.0 | 0.00 | 0.00 | 0.00 | 60 | 1014.7 |
| 20260507155904 | 59 | 129 | 4.0 | 7.0 | 0.00 | 0.00 | 0.00 | 56 | 1014.7 |
| 20260507155404 | 59 | 81 | 3.0 | 9.0 | 0.00 | 0.00 | 0.00 | 57 | 1014.7 |
| 20260507154904 | 59 | 68 | 1.0 | 5.0 | 0.00 | 0.00 | 0.00 | 56 | 1014.7 |
| 20260507154404 | 59 | 116 | 4.0 | 8.0 | 0.00 | 0.00 | 0.00 | 57 | 1014.7 |
| 20260507153904 | 59 | 63 | 4.0 | 7.0 | 0.00 | 0.00 | 0.00 | 56 | 1014.8 |
| 20260507152404 | 60 | 98 | 5.0 | 9.0 | 0.00 | 0.00 | 0.00 | 54 | 1014.8 |
| 20260507151904 | 60 | 57 | 3.0 | 10.0 | 0.00 | 0.00 | 0.00 | 56 | 1014.8 |
| 20260507151403 | 59 | 137 | 2.0 | 7.0 | 0.00 | 0.00 | 0.00 | 56 | 1014.8 |
| 20260507150404 | 59 | 165 | 3.0 | 8.0 | 0.00 | 0.00 | 0.00 | 55 | 1014.8 |
| 20260507145904 | 59 | 91 | 4.0 | 8.0 | 0.00 | 0.00 | 0.00 | 57 | 1014.9 |
| 20260507145404 | 59 | 113 | 2.0 | 7.0 | 0.00 | 0.00 | 0.00 | 53 | 1014.9 |
| 20260507144903 | 59 | 129 | 4.0 | 8.0 | 0.00 | 0.00 | 0.00 | 54 | 1014.9 |
| 20260507144404 | 60 | 105 | 3.0 | 7.0 | 0.00 | 0.00 | 0.00 | 56 | 1014.9 |
| 20260507143903 | 60 | 102 | 2.0 | 8.0 | 0.00 | 0.00 | 0.00 | 56 | 1014.9 |
| 20260507143404 | 61 | 112 | 3.0 | 7.0 | 0.00 | 0.00 | 0.00 | 54 | 1014.9 |
| 20260507141904 | 62 | 149 | 4.0 | 8.0 | 0.00 | 0.00 | 0.00 | 51 | 1015.2 |
| 20260507135904 | 62 | 127 | 1.0 | 9.0 | 0.00 | 0.00 | 0.00 | 53 | 1015.2 |
| 20260507135403 | 62 | 128 | 5.0 | 7.0 | 0.00 | 0.00 | 0.00 | 53 | 1015.2 |
| 20260507134904 | 62 | 35 | 2.0 | 6.0 | 0.00 | 0.00 | 0.00 | 51 | 1015.2 |
| 20260507133903 | 61 | 109 | 2.0 | 8.0 | 0.00 | 0.00 | 0.00 | 53 | 1015.2 |
| 20260507133404 | 61 | 160 | 6.0 | 12.0 | 0.00 | 0.00 | 0.00 | 53 | 1015.2 |
| 20260507132904 | 60 | 126 | 5.0 | 8.0 | 0.00 | 0.00 | 0.00 | 52 | 1015.3 |
| 20260507132404 | 60 | 192 | 4.0 | 9.0 | 0.00 | 0.00 | 0.00 | 57 | 1015.3 |
| 20260507131905 | 61 | 52 | 3.0 | 9.0 | 0.00 | 0.00 | 0.00 | 58 | 1015.3 |
| 20260507131404 | 61 | 87 | 4.0 | 8.0 | 0.00 | 0.00 | 0.00 | 60 | 1015.3 |
| 20260507130904 | 60 | 160 | 3.0 | 9.0 | 0.00 | 0.00 | 0.00 | 60 | 1015.3 |
| 20260507130404 | 59 | 133 | 3.0 | 8.0 | 0.00 | 0.00 | 0.00 | 64 | 1015.3 |
| 20260507125404 | 59 | 87 | 3.0 | 9.0 | 0.00 | 0.00 | 0.00 | 62 | 1015.4 |
| 20260507124903 | 59 | 106 | 5.0 | 8.0 | 0.00 | 0.00 | 0.00 | 62 | 1015.4 |
| 20260507123903 | 57 | 109 | 3.0 | 8.0 | 0.00 | 0.00 | 0.00 | 66 | 1015.4 |
| 20260507123404 | 57 | 269 | 3.0 | 7.0 | 0.00 | 0.00 | 0.00 | 65 | 1015.4 |
| 20260507122904 | 57 | 144 | 3.0 | 7.0 | 0.00 | 0.00 | 0.00 | 65 | 1015.4 |
| 20260507122404 | 58 | 111 | 3.0 | 10.0 | 0.00 | 0.00 | 0.00 | 67 | 1015.4 |
| 20260507121903 | 58 | 144 | 2.0 | 6.0 | 0.00 | 0.00 | 0.00 | 66 | 1015.5 |
| 20260507121404 | 58 | 171 | 5.0 | 9.0 | 0.00 | 0.00 | 0.00 | 66 | 1015.6 |
| 20260507120903 | 58 | 111 | 2.0 | 8.0 | 0.00 | 0.00 | 0.00 | 66 | 1015.6 |
| 20260507120404 | 58 | 174 | 2.0 | 8.0 | 0.00 | 0.00 | 0.00 | 66 | 1015.6 |
| 20260507115404 | 58 | 118 | 5.0 | 8.0 | 0.00 | 0.00 | 0.00 | 65 | 1015.4 |
| 20260507114904 | 58 | 177 | 3.0 | 8.0 | 0.00 | 0.00 | 0.00 | 64 | 1015.4 |
| 20260507114404 | 59 | 93 | 4.0 | 8.0 | 0.00 | 0.00 | 0.00 | 66 | 1015.4 |
| 20260507113903 | 59 | 169 | 3.0 | 8.0 | 0.00 | 0.00 | 0.00 | 65 | 1015.4 |
| 20260507113404 | 60 | 72 | 4.0 | 9.0 | 0.00 | 0.00 | 0.00 | 65 | 1015.4 |
| 20260507112904 | 59 | 81 | 4.0 | 9.0 | 0.00 | 0.00 | 0.00 | 64 | 1015.4 |
| 20260507112404 | 58 | 122 | 3.0 | 12.0 | 0.00 | 0.00 | 0.00 | 70 | 1015.4 |
| 20260507111905 | 58 | 113 | 4.0 | 9.0 | 0.00 | 0.00 | 0.00 | 68 | 1015.4 |
| 20260507111403 | 58 | 94 | 3.0 | 12.0 | 0.00 | 0.00 | 0.00 | 67 | 1015.5 |
| 20260507110904 | 58 | 116 | 3.0 | 8.0 | 0.00 | 0.00 | 0.00 | 66 | 1015.5 |
| 20260507105904 | 58 | 113 | 3.0 | 12.0 | 0.00 | 0.00 | 0.00 | 68 | 1015.5 |
| 20260507105404 | 58 | 95 | 4.0 | 8.0 | 0.00 | 0.00 | 0.00 | 67 | 1015.5 |
| 20260507104904 | 59 | 103 | 4.0 | 8.0 | 0.00 | 0.00 | 0.00 | 66 | 1015.5 |
| 20260507104404 | 59 | 143 | 3.0 | 9.0 | 0.00 | 0.00 | 0.00 | 68 | 1015.6 |
| 20260507103904 | 57 | 151 | 3.0 | 6.0 | 0.00 | 0.00 | 0.00 | 68 | 1015.6 |
| 20260507103404 | 57 | 101 | 3.0 | 7.0 | 0.00 | 0.00 | 0.00 | 68 | 1015.6 |
| 20260507102904 | 58 | 80 | 6.0 | 12.0 | 0.00 | 0.00 | 0.00 | 68 | 1015.6 |
| 20260507102404 | 57 | 141 | 3.0 | 8.0 | 0.00 | 0.00 | 0.00 | 67 | 1015.6 |
| 20260507101903 | 57 | 127 | 5.0 | 10.0 | 0.00 | 0.00 | 0.00 | 68 | 1015.7 |
| 20260507101404 | 58 | 131 | 5.0 | 9.0 | 0.00 | 0.00 | 0.00 | 67 | 1015.7 |
| 20260507100904 | 58 | 132 | 6.0 | 14.0 | 0.00 | 0.00 | 0.00 | 68 | 1015.7 |
| 20260507100404 | 58 | 132 | 4.0 | 8.0 | 0.00 | 0.00 | 0.00 | 69 | 1015.7 |
| 20260507095404 | 59 | 183 | 3.0 | 7.0 | 0.00 | 0.00 | 0.00 | 67 | 1015.6 |
| 20260507094903 | 58 | 103 | 5.0 | 9.0 | 0.00 | 0.00 | 0.00 | 68 | 1015.6 |
| 20260507094405 | 59 | 103 | 4.0 | 9.0 | 0.00 | 0.00 | 0.00 | 67 | 1015.6 |
| 20260507093903 | 59 | 122 | 6.0 | 12.0 | 0.00 | 0.00 | 0.00 | 64 | 1015.6 |
| 20260507093404 | 59 | 66 | 6.0 | 10.0 | 0.00 | 0.00 | 0.00 | 67 | 1015.6 |
| 20260507092903 | 59 | 76 | 4.0 | 9.0 | 0.00 | 0.00 | 0.00 | 68 | 1015.6 |
| 20260507092403 | 59 | 38 | 4.0 | 7.0 | 0.00 | 0.00 | 0.00 | 69 | 1015.6 |
| 20260507091904 | 58 | 151 | 2.0 | 7.0 | 0.00 | 0.00 | 0.00 | 67 | 1015.6 |
| 20260507091403 | 58 | 56 | 4.0 | 9.0 | 0.00 | 0.00 | 0.00 | 66 | 1015.6 |
| 20260507090904 | 58 | 138 | 3.0 | 7.0 | 0.00 | 0.00 | 0.00 | 68 | 1015.6 |
| 20260507090404 | 58 | 95 | 3.0 | 7.0 | 0.00 | 0.00 | 0.00 | 67 | 1015.6 |
| 20260507085904 | 57 | 166 | 2.0 | 12.0 | 0.00 | 0.00 | 0.00 | 68 | 1015.6 |
| 20260507085404 | 57 | 116 | 4.0 | 12.0 | 0.00 | 0.00 | 0.00 | 72 | 1015.7 |
| 20260507084904 | 56 | 108 | 3.0 | 7.0 | 0.00 | 0.00 | 0.00 | 73 | 1015.7 |
| 20260507084404 | 56 | 96 | 2.0 | 7.0 | 0.00 | 0.00 | 0.00 | 72 | 1015.6 |
| 20260507083904 | 56 | 141 | 3.0 | 7.0 | 0.00 | 0.00 | 0.00 | 70 | 1015.6 |
| 20260507083404 | 58 | 125 | 3.0 | 6.0 | 0.00 | 0.00 | 0.00 | 73 | 1015.6 |
| 20260507082409 | 55 | 163 | 2.0 | 8.0 | 0.00 | 0.00 | 0.00 | 76 | 1015.6 |
| 20260507081404 | 55 | 104 | 5.0 | 8.0 | 0.00 | 0.00 | 0.00 | 75 | 1015.6 |